When you browse on this site, cookies collect data to enhance your experience and personalize the content and advertising you see.
Visit our Privacy Policy to learn more. By continuing to use the site, you agree to this use of cookies and data.
  • In Deutschland
  • Länderverzeichnis
  • Für 7 Tage
  • Wassertemperatur
  • Wetterkarte
  • Widgets
  • user-avatar
    Anmelden

    Stündliche Wetter Ozhgiha

    Heute, 20 Oktober, Sonntag

    Zeit Temperatur Niederschläge Wind Luftdruck Luftfeuchtigkeit
    00:00 -4°C° 0 mm 1 m/S 766 mmHg 78%
    01:00 -6°C° 0 mm 0 m/S 766 mmHg 78%
    02:00 -6°C° 0 mm 1 m/S 766 mmHg 79%
    03:00 -6°C° 0 mm 1 m/S 766 mmHg 80%
    04:00 -6°C° 0 mm 1 m/S 767 mmHg 81%
    05:00 -6°C° 0 mm 1 m/S 767 mmHg 82%
    06:00 -6°C° 0 mm 1 m/S 767 mmHg 83%
    07:00 -7°C° 0 mm 2 m/S 767 mmHg 84%
    08:00 -6°C° 0 mm 2 m/S 767 mmHg 79%
    09:00 -6°C° 0 mm 3 m/S 767 mmHg 74%
    10:00 -5°C° 0 mm 3 m/S 767 mmHg 69%
    11:00 -5°C° 0 mm 3 m/S 766 mmHg 68%
    12:00 -4°C° 0 mm 4 m/S 766 mmHg 67%
    13:00 -3°C° 0 mm 4 m/S 765 mmHg 65%
    14:00 -4°C° 0 mm 4 m/S 765 mmHg 69%
    15:00 -4°C° 0 mm 4 m/S 765 mmHg 72%
    16:00 -5°C° 0 mm 4 m/S 765 mmHg 75%
    17:00 -5°C° 0 mm 4 m/S 765 mmHg 76%
    18:00 -6°C° 0 mm 5 m/S 764 mmHg 77%
    19:00 -7°C° 0 mm 5 m/S 764 mmHg 78%
    20:00 -7°C° 0 mm 5 m/S 764 mmHg 79%
    21:00 -7°C° 0 mm 5 m/S 764 mmHg 80%
    22:00 -7°C° 0 mm 5 m/S 763 mmHg 82%
    23:00 -7°C° 0 mm 5 m/S 763 mmHg 80%

    Morgen, 21 Oktober, Montag

    Zeit Temperatur Niederschläge Wind Luftdruck Luftfeuchtigkeit
    00:00 -7°C° 0 mm 5 m/S 763 mmHg 79%
    01:00 -6°C° 0 mm 5 m/S 762 mmHg 77%
    02:00 -6°C° 0 mm 5 m/S 762 mmHg 77%
    03:00 -6°C° 0 mm 5 m/S 762 mmHg 76%
    04:00 -6°C° 0 mm 5 m/S 762 mmHg 75%
    05:00 -6°C° 0 mm 5 m/S 761 mmHg 75%
    06:00 -5°C° 0 mm 6 m/S 761 mmHg 74%
    07:00 -5°C° 0 mm 6 m/S 760 mmHg 74%
    08:00 -5°C° 0.4 mm 6 m/S 760 mmHg 79%
    09:00 -4°C° 0.4 mm 6 m/S 760 mmHg 85%
    10:00 -4°C° 0.4 mm 6 m/S 760 mmHg 90%
    11:00 -4°C° 0.4 mm 6 m/S 759 mmHg 90%
    12:00 -3°C° 0.4 mm 6 m/S 759 mmHg 90%
    13:00 -3°C° 0.4 mm 6 m/S 758 mmHg 90%
    14:00 -3°C° 0.1 mm 6 m/S 758 mmHg 90%
    15:00 -2°C° 0.1 mm 6 m/S 758 mmHg 90%
    16:00 -2°C° 0.1 mm 6 m/S 758 mmHg 91%
    17:00 -1°C° 0 mm 5 m/S 757 mmHg 90%
    18:00 -1°C° 0 mm 5 m/S 757 mmHg 90%
    19:00 -1°C° 0 mm 5 m/S 757 mmHg 89%
    20:00 -1°C° 0 mm 5 m/S 756 mmHg 90%
    21:00 -1°C° 0 mm 5 m/S 756 mmHg 91%
    22:00 -1°C° 0 mm 5 m/S 755 mmHg 91%
    23:00 -1°C° 0 mm 5 m/S 754 mmHg 91%

    übermorgen, 22 Oktober, Dienstag

    Zeit Temperatur Niederschläge Wind Luftdruck Luftfeuchtigkeit
    00:00 0°C° 0 mm 5 m/S 753 mmHg 91%
    01:00 -1°C° 0 mm 6 m/S 753 mmHg 91%
    02:00 -1°C° 0 mm 6 m/S 752 mmHg 91%
    03:00 +1°C° 0 mm 6 m/S 751 mmHg 91%
    04:00 +1°C° 0 mm 6 m/S 751 mmHg 91%
    05:00 0°C° 0.4 mm 7 m/S 750 mmHg 91%
    06:00 0°C° 0.4 mm 7 m/S 749 mmHg 91%
    07:00 0°C° 0.4 mm 8 m/S 748 mmHg 90%
    08:00 +1°C° 0.9 mm 8 m/S 747 mmHg 91%
    09:00 +2°C° 0.9 mm 7 m/S 747 mmHg 91%
    10:00 +2°C° 0.9 mm 7 m/S 746 mmHg 91%
    11:00 +3°C° 0 mm 7 m/S 746 mmHg 89%
    12:00 +4°C° 0 mm 7 m/S 747 mmHg 87%
    13:00 +4°C° 0 mm 7 m/S 747 mmHg 85%
    14:00 +4°C° 0 mm 7 m/S 747 mmHg 84%
    15:00 +3°C° 0 mm 6 m/S 747 mmHg 84%
    16:00 +2°C° 0 mm 6 m/S 747 mmHg 83%
    17:00 +2°C° 0 mm 5 m/S 747 mmHg 85%
    18:00 +1°C° 0 mm 5 m/S 748 mmHg 87%
    19:00 +1°C° 0 mm 5 m/S 748 mmHg 89%
    20:00 +1°C° 0 mm 5 m/S 748 mmHg 89%
    21:00 +1°C° 0 mm 4 m/S 749 mmHg 89%
    22:00 +1°C° 0 mm 4 m/S 749 mmHg 89%
    23:00 0°C° 0 mm 4 m/S 749 mmHg 89%

    23 Oktober, Mittwoch

    Zeit Temperatur Niederschläge Wind Luftdruck Luftfeuchtigkeit
    00:00 0°C° 0 mm 4 m/S 749 mmHg 90%
    01:00 -1°C° 0 mm 4 m/S 750 mmHg 90%
    02:00 0°C° 0 mm 3 m/S 750 mmHg 90%
    03:00 0°C° 0 mm 3 m/S 751 mmHg 91%
    04:00 -1°C° 0 mm 3 m/S 751 mmHg 91%
    05:00 -1°C° 0 mm 3 m/S 752 mmHg 90%
    06:00 -1°C° 0 mm 3 m/S 752 mmHg 89%
    07:00 -1°C° 0 mm 3 m/S 753 mmHg 88%
    08:00 -1°C° 0 mm 3 m/S 753 mmHg 84%
    09:00 0°C° 0 mm 3 m/S 753 mmHg 81%
    10:00 -1°C° 0 mm 4 m/S 753 mmHg 78%
    11:00 -1°C° 0 mm 4 m/S 753 mmHg 77%
    12:00 0°C° 0 mm 4 m/S 753 mmHg 76%
    13:00 0°C° 0 mm 4 m/S 753 mmHg 75%
    14:00 0°C° 0 mm 3 m/S 753 mmHg 78%
    15:00 0°C° 0 mm 3 m/S 753 mmHg 80%
    16:00 -1°C° 0 mm 2 m/S 753 mmHg 83%
    17:00 -1°C° 0 mm 3 m/S 753 mmHg 85%
    18:00 -1°C° 0 mm 3 m/S 753 mmHg 86%
    19:00 -2°C° 0 mm 3 m/S 753 mmHg 87%
    20:00 -2°C° 0 mm 3 m/S 753 mmHg 87%
    21:00 -2°C° 0 mm 3 m/S 753 mmHg 86%
    22:00 -3°C° 0 mm 4 m/S 752 mmHg 85%
    23:00 -3°C° 0 mm 4 m/S 752 mmHg 85%

    24 Oktober, Donnerstag

    Zeit Temperatur Niederschläge Wind Luftdruck Luftfeuchtigkeit
    00:00 -2°C° 0 mm 4 m/S 752 mmHg 84%
    01:00 -2°C° 0 mm 5 m/S 751 mmHg 83%
    02:00 -2°C° 0 mm 5 m/S 751 mmHg 83%
    03:00 -1°C° 0 mm 5 m/S 750 mmHg 83%
    04:00 -1°C° 0 mm 5 m/S 750 mmHg 83%
    05:00 0°C° 0 mm 5 m/S 749 mmHg 84%
    06:00 0°C° 0 mm 5 m/S 749 mmHg 85%
    07:00 +1°C° 0 mm 5 m/S 749 mmHg 86%
    08:00 +2°C° 0 mm 6 m/S 748 mmHg 85%
    09:00 +2°C° 0 mm 6 m/S 748 mmHg 84%
    10:00 +3°C° 0 mm 6 m/S 748 mmHg 83%
    11:00 +4°C° 0 mm 6 m/S 748 mmHg 83%
    12:00 +6°C° 0 mm 5 m/S 748 mmHg 83%
    13:00 +6°C° 0 mm 5 m/S 747 mmHg 82%
    14:00 +6°C° 0 mm 5 m/S 747 mmHg 84%
    15:00 +5°C° 0 mm 5 m/S 747 mmHg 86%
    16:00 +5°C° 0 mm 4 m/S 747 mmHg 89%
    17:00 +5°C° 0 mm 4 m/S 748 mmHg 90%
    18:00 +4°C° 0 mm 4 m/S 748 mmHg 91%
    19:00 +4°C° 0 mm 4 m/S 748 mmHg 91%
    20:00 +3°C° 0 mm 3 m/S 748 mmHg 92%
    21:00 +3°C° 0 mm 3 m/S 748 mmHg 93%
    22:00 +3°C° 0 mm 3 m/S 748 mmHg 93%
    23:00 +3°C° 0 mm 3 m/S 749 mmHg 94%

    25 Oktober, Freitag

    Zeit Temperatur Niederschläge Wind Luftdruck Luftfeuchtigkeit
    00:00 +3°C° 0 mm 3 m/S 749 mmHg 94%
    01:00 +2°C° 0 mm 3 m/S 749 mmHg 95%
    02:00 +2°C° 0 mm 3 m/S 749 mmHg 95%
    03:00 +2°C° 0 mm 3 m/S 749 mmHg 94%
    04:00 +2°C° 0 mm 3 m/S 750 mmHg 94%
    05:00 +2°C° 0 mm 3 m/S 750 mmHg 94%
    06:00 +2°C° 0 mm 3 m/S 750 mmHg 94%
    07:00 +2°C° 0 mm 3 m/S 750 mmHg 94%
    08:00 +3°C° 0 mm 3 m/S 751 mmHg 92%
    09:00 +4°C° 0 mm 3 m/S 751 mmHg 90%
    10:00 +5°C° 0 mm 3 m/S 751 mmHg 87%
    11:00 +7°C° 0 mm 3 m/S 751 mmHg 85%
    12:00 +6°C° 0 mm 4 m/S 751 mmHg 83%
    13:00 +7°C° 0 mm 4 m/S 751 mmHg 81%
    14:00 +7°C° 0 mm 4 m/S 750 mmHg 84%
    15:00 +6°C° 0 mm 4 m/S 750 mmHg 87%
    16:00 +6°C° 0 mm 4 m/S 750 mmHg 90%
    17:00 +7°C° 0 mm 4 m/S 750 mmHg 90%
    18:00 +7°C° 0 mm 5 m/S 750 mmHg 91%
    19:00 +8°C° 0 mm 5 m/S 750 mmHg 91%
    20:00 +8°C° 0 mm 5 m/S 750 mmHg 91%
    21:00 +8°C° 0 mm 5 m/S 750 mmHg 91%
    22:00 +8°C° 0 mm 4 m/S 750 mmHg 91%
    23:00 +7°C° 0 mm 4 m/S 750 mmHg 89%
    Mehr zeigen